TDRS 3

Last updated on Wed Sep 17 2025 00:02:40 GMT+0000 (Coordinated Universal Time)

1 19548U 88091B 25259.07450480 -.00000310 00000+0 00000+0 0 9997 2 19548 12.8120 342.8082 0036890 340.4146 10.0062 1.00268351122637
UTC large
Height (km)
Speed (km/s)
/
Latitude / Longitude
Inclination (degrees)
Orbital Period (minutes)
Azimuth
Elevation
Range (km)
Doppler Factor

Next 0 passes for location: London (51.5072 / 0.1276)

Sorry there are no passes over London.